TUI683 EDDF-EDDS

Flight info

Callsign TUI683
Flight time 0h 26m
Altitude 23000
Route ANEKI2L ANEKI Y163 NEKLO Y171 INKAM N850 KRH T128 BADSO BADSO2A
Aircraft B738/M-SDE2E3FGHIRWXY/LB1

Departure

Time 2026-04-14 06:12
Airport Frankfurt Main Airport (EDDF)

Arrival

Time 2026-04-14 06:38
Airport Stuttgart Airport (EDDS)
Time Latitude Longitude Altitude Speed Heading
2026-04-14 05:45 50.04904 8.58794 361 ft 0 kts 160°
2026-04-14 06:01 50.04927 8.58781 363 ft 4 kts 160°
2026-04-14 06:01 50.04951 8.58770 364 ft 4 kts 186°
2026-04-14 06:02 50.04974 8.58784 365 ft 4 kts 230°
2026-04-14 06:02 50.04984 8.58811 366 ft 4 kts 250°
2026-04-14 06:02 50.04990 8.58838 359 ft 0 kts 250°
2026-04-14 06:04 50.04982 8.58804 363 ft 8 kts 250°
2026-04-14 06:04 50.04949 8.58664 360 ft 19 kts 250°
2026-04-14 06:04 50.04894 8.58434 362 ft 25 kts 249°
2026-04-14 06:05 50.04835 8.58189 363 ft 23 kts 249°
2026-04-14 06:05 50.04766 8.57973 359 ft 22 kts 224°
2026-04-14 06:05 50.04679 8.57782 361 ft 21 kts 250°
2026-04-14 06:05 50.04628 8.57565 359 ft 21 kts 249°
2026-04-14 06:06 50.04578 8.57359 358 ft 20 kts 250°
2026-04-14 06:06 50.04529 8.57152 360 ft 22 kts 250°
2026-04-14 06:06 50.04468 8.56896 362 ft 26 kts 250°
2026-04-14 06:06 50.04408 8.56642 360 ft 24 kts 250°
2026-04-14 06:07 50.04350 8.56403 358 ft 23 kts 249°
2026-04-14 06:07 50.04295 8.56173 360 ft 22 kts 250°
2026-04-14 06:07 50.04242 8.55952 354 ft 22 kts 249°
2026-04-14 06:07 50.04190 8.55732 356 ft 23 kts 249°
2026-04-14 06:08 50.04125 8.55460 358 ft 27 kts 250°
2026-04-14 06:08 50.04061 8.55198 355 ft 25 kts 249°
2026-04-14 06:08 50.04003 8.54949 356 ft 23 kts 250°
2026-04-14 06:08 50.03947 8.54718 354 ft 23 kts 249°
2026-04-14 06:09 50.03894 8.54493 354 ft 22 kts 250°
2026-04-14 06:09 50.03809 8.54248 346 ft 27 kts 243°
2026-04-14 06:09 50.03744 8.53988 349 ft 25 kts 249°
2026-04-14 06:09 50.03685 8.53745 345 ft 23 kts 249°
2026-04-14 06:10 50.03627 8.53515 339 ft 22 kts 248°
2026-04-14 06:10 50.03574 8.53292 335 ft 22 kts 249°
2026-04-14 06:10 50.03522 8.53072 336 ft 21 kts 249°
2026-04-14 06:10 50.03469 8.52864 332 ft 21 kts 246°
2026-04-14 06:11 50.03413 8.52663 331 ft 20 kts 237°
2026-04-14 06:11 50.03286 8.52595 333 ft 23 kts 179°
2026-04-14 06:11 50.02940 8.52599 334 ft 85 kts 180°
2026-04-14 06:11 50.02125 8.52603 335 ft 147 kts 181°
2026-04-14 06:12 50.00983 8.52632 681 ft 167 kts 180°
2026-04-14 06:12 49.99838 8.52681 1526 ft 166 kts 179°
2026-04-14 06:12 49.98622 8.52733 2058 ft 183 kts 179°
2026-04-14 06:12 49.97293 8.52809 2470 ft 202 kts 177°
2026-04-14 06:13 49.95825 8.52902 2999 ft 217 kts 177°
2026-04-14 06:13 49.94308 8.53004 3570 ft 221 kts 177°
2026-04-14 06:13 49.92771 8.53107 4157 ft 223 kts 177°
2026-04-14 06:13 49.91158 8.53213 4535 ft 235 kts 178°
2026-04-14 06:14 49.89512 8.53333 5087 ft 244 kts 177°
2026-04-14 06:14 49.87799 8.53471 5817 ft 244 kts 178°
2026-04-14 06:14 49.86135 8.53600 6661 ft 242 kts 178°
2026-04-14 06:14 49.84426 8.53740 7280 ft 248 kts 178°
2026-04-14 06:15 49.82717 8.53876 8066 ft 246 kts 179°
2026-04-14 06:15 49.80992 8.54000 8837 ft 249 kts 179°
2026-04-14 06:15 49.79263 8.54110 9612 ft 250 kts 179°
2026-04-14 06:15 49.77507 8.54163 10381 ft 253 kts 184°
2026-04-14 06:16 49.75690 8.53967 10666 ft 275 kts 187°
2026-04-14 06:16 49.73712 8.53672 10871 ft 300 kts 187°
2026-04-14 06:16 49.71545 8.53341 11063 ft 324 kts 187°
2026-04-14 06:16 49.69208 8.52994 11288 ft 345 kts 187°
2026-04-14 06:17 49.66794 8.52651 11854 ft 353 kts 186°
2026-04-14 06:17 49.64361 8.52316 12600 ft 356 kts 186°
2026-04-14 06:17 49.61881 8.51982 13401 ft 358 kts 186°
2026-04-14 06:17 49.59398 8.51651 14173 ft 361 kts 186°
2026-04-14 06:18 49.56855 8.51313 14899 ft 365 kts 186°
2026-04-14 06:18 49.54341 8.50981 15632 ft 368 kts 186°
2026-04-14 06:18 49.51764 8.50640 16373 ft 371 kts 186°
2026-04-14 06:18 49.49195 8.50715 17095 ft 377 kts 168°
2026-04-14 06:19 49.46784 8.52404 17869 ft 383 kts 146°
2026-04-14 06:19 49.44872 8.55223 18589 ft 390 kts 129°
2026-04-14 06:19 49.43352 8.58688 19172 ft 395 kts 124°
2026-04-14 06:19 49.41866 8.62304 19723 ft 400 kts 124°
2026-04-14 06:20 49.40390 8.65945 20112 ft 403 kts 123°
2026-04-14 06:20 49.38915 8.69576 20114 ft 402 kts 124°
2026-04-14 06:20 49.37423 8.73219 20120 ft 404 kts 124°
2026-04-14 06:20 49.35909 8.76882 19851 ft 406 kts 124°
2026-04-14 06:21 49.34404 8.80500 19503 ft 401 kts 124°
2026-04-14 06:21 49.32916 8.84060 19133 ft 395 kts 124°
2026-04-14 06:21 49.31449 8.87557 18773 ft 390 kts 124°
2026-04-14 06:21 49.29975 8.91063 18417 ft 389 kts 124°
2026-04-14 06:22 49.28500 8.94564 17998 ft 387 kts 124°
2026-04-14 06:22 49.27044 8.98016 17595 ft 386 kts 124°
2026-04-14 06:22 49.25598 9.01438 17196 ft 385 kts 124°
2026-04-14 06:22 49.24139 9.04889 16809 ft 384 kts 124°
2026-04-14 06:23 49.22695 9.08301 16416 ft 382 kts 124°
2026-04-14 06:23 49.21260 9.11686 16036 ft 381 kts 124°
2026-04-14 06:23 49.19809 9.15105 15654 ft 379 kts 124°
2026-04-14 06:23 49.18388 9.18449 15291 ft 378 kts 124°
2026-04-14 06:24 49.16951 9.21826 14915 ft 376 kts 124°
2026-04-14 06:24 49.15538 9.25142 14547 ft 375 kts 124°
2026-04-14 06:24 49.14112 9.28486 14220 ft 372 kts 124°
2026-04-14 06:24 49.12720 9.31746 13912 ft 367 kts 124°
2026-04-14 06:25 49.11324 9.35014 13564 ft 360 kts 124°
2026-04-14 06:25 49.09972 9.38170 13237 ft 355 kts 124°
2026-04-14 06:25 49.08636 9.41289 12884 ft 350 kts 124°
2026-04-14 06:25 49.07315 9.44367 12535 ft 346 kts 124°
2026-04-14 06:26 49.05998 9.47435 12187 ft 341 kts 124°
2026-04-14 06:26 49.04711 9.50427 11856 ft 336 kts 124°
2026-04-14 06:26 49.03447 9.53364 11527 ft 332 kts 124°
2026-04-14 06:26 49.02178 9.56307 11198 ft 327 kts 124°
2026-04-14 06:27 49.00940 9.59177 10878 ft 324 kts 124°
2026-04-14 06:27 48.99711 9.62020 10558 ft 320 kts 124°
2026-04-14 06:27 48.98497 9.64829 10247 ft 317 kts 123°
2026-04-14 06:27 48.97283 9.67635 9937 ft 314 kts 123°
2026-04-14 06:28 48.96092 9.70385 9626 ft 310 kts 124°
2026-04-14 06:28 48.94902 9.73131 9354 ft 306 kts 124°
2026-04-14 06:28 48.93746 9.75796 9102 ft 301 kts 124°
2026-04-14 06:28 48.92609 9.78413 8920 ft 295 kts 124°
2026-04-14 06:29 48.91856 9.80145 8839 ft 294 kts 124°
2026-04-14 06:29 48.90355 9.83587 8663 ft 291 kts 125°
2026-04-14 06:29 48.89498 9.85147 8550 ft 288 kts 141°
2026-04-14 06:29 48.87773 9.86573 8425 ft 282 kts 163°
2026-04-14 06:30 48.85270 9.87611 8260 ft 279 kts 169°
2026-04-14 06:30 48.83983 9.87799 8080 ft 280 kts 186°
2026-04-14 06:30 48.82153 9.86853 7865 ft 278 kts 216°
2026-04-14 06:30 48.80851 9.84779 7606 ft 274 kts 244°
2026-04-14 06:31 48.80327 9.82054 7405 ft 269 kts 260°
2026-04-14 06:31 48.79910 9.79267 7110 ft 269 kts 256°
2026-04-14 06:31 48.79417 9.76550 6855 ft 269 kts 255°
2026-04-14 06:31 48.78900 9.73858 6744 ft 263 kts 255°
2026-04-14 06:32 48.78386 9.71224 6607 ft 260 kts 254°
2026-04-14 06:32 48.77878 9.68626 6481 ft 255 kts 254°
2026-04-14 06:32 48.77380 9.66056 6342 ft 250 kts 255°
2026-04-14 06:32 48.76891 9.63528 6202 ft 246 kts 255°
2026-04-14 06:33 48.76418 9.61065 6129 ft 239 kts 255°
2026-04-14 06:33 48.75956 9.58671 5854 ft 239 kts 255°
2026-04-14 06:33 48.75491 9.56258 5534 ft 240 kts 255°
2026-04-14 06:34 48.74549 9.51363 4900 ft 244 kts 255°
2026-04-14 06:34 48.74072 9.48875 4557 ft 245 kts 255°
2026-04-14 06:34 48.73601 9.46421 4241 ft 244 kts 255°
2026-04-14 06:34 48.73134 9.43984 3904 ft 238 kts 256°
2026-04-14 06:35 48.72675 9.41586 3574 ft 230 kts 256°
2026-04-14 06:35 48.72249 9.39361 3251 ft 213 kts 256°
2026-04-14 06:35 48.71852 9.37279 2988 ft 195 kts 256°
2026-04-14 06:35 48.71491 9.35384 2718 ft 181 kts 256°
2026-04-14 06:36 48.71158 9.33636 2505 ft 165 kts 256°
2026-04-14 06:36 48.70857 9.32044 2266 ft 154 kts 256°
2026-04-14 06:36 48.70551 9.30507 2018 ft 151 kts 255°
2026-04-14 06:36 48.70264 9.28961 1823 ft 154 kts 256°
2026-04-14 06:37 48.69973 9.27420 1640 ft 153 kts 255°
2026-04-14 06:37 48.69676 9.25874 1436 ft 151 kts 255°
2026-04-14 06:37 48.69389 9.24349 1245 ft 150 kts 256°
2026-04-14 06:37 48.69125 9.22921 1218 ft 121 kts 254°
2026-04-14 06:38 48.68954 9.22019 1238 ft 71 kts 253°
2026-04-14 06:38 48.68830 9.21359 1262 ft 59 kts 253°
2026-04-14 06:38 48.68726 9.20810 1269 ft 45 kts 253°
2026-04-14 06:38 48.68677 9.20404 1274 ft 36 kts 271°
2026-04-14 06:39 48.68717 9.20108 1290 ft 23 kts 289°
2026-04-14 06:39 48.68763 9.19887 1294 ft 22 kts 262°
2026-04-14 06:39 48.68722 9.19666 1300 ft 21 kts 253°
2026-04-14 06:39 48.68683 9.19452 1306 ft 21 kts 255°
2026-04-14 06:40 48.68648 9.19271 1311 ft 14 kts 254°
2026-04-14 06:40 48.68688 9.19158 1316 ft 14 kts 336°
2026-04-14 06:40 48.68767 9.19189 1316 ft 12 kts 61°
2026-04-14 06:40 48.68757 9.19251 1314 ft 5 kts 152°
2026-04-14 06:41 48.68726 9.19259 1313 ft 3 kts 163°
2026-04-14 06:41 48.68721 9.19262 1313 ft 0 kts 162°